User: anonymous   Login
Location: Unspecified
(0.0000°N, 0.0000°E)
Time: 10:56:56
(UTC+00:00)
Language:

TSUBAME - Orbit

View from above orbital plane
View from above orbital plane
View from above satellite
View from above satellite

Ground track
Ground track

The orbit data is extracted from the following two-line orbital elements,

1 40302U 14070E   19082.12688447  .00000531  00000-0  29269-4 0  9992
2 40302  97.2970 143.9538 0039998  40.1721  43.3733 15.17510266241971
Epoch (UTC): 23 March 2019 03:02:42
Eccentricity: 0.0039998
inclination: 97.2970°
perigee height: 486 km
apogee height: 541 km
right ascension of ascending node: 143.9538°
argument of perigee: 40.1721°
revolutions per day: 15.17510266
mean anomaly at epoch: 43.3733°
orbit number at epoch: 24197

The dashed part of the orbit path shows where the satellite is in the earth's shadow,  

DLR